When you browse on this site, cookies collect data to enhance your experience and personalize the content and advertising you see.
Visit our Privacy Policy to learn more. By continuing to use the site, you agree to this use of cookies and data.
  • en France
  • Liste des pays
  • À 7 jours
  • Température de l'eau
  • Carte météo
  • Widgets météo
  • user-avatar
    Se connecter

    Météo par heure à Heidelberg

    Ce jour, 30 Mars, Lundi

    Heure Température Précipitation Vent Pression Humidité
    00:00 -2°C° 0 mm 6 m/s 740 mmHg 72%
    01:00 -2°C° 0 mm 4 m/s 741 mmHg 73%
    02:00 -3°C° 0 mm 4 m/s 741 mmHg 71%
    03:00 -3°C° 0 mm 4 m/s 741 mmHg 69%
    04:00 -4°C° 0 mm 4 m/s 740 mmHg 68%
    05:00 -4°C° 0 mm 4 m/s 741 mmHg 65%
    06:00 -4°C° 0 mm 4 m/s 741 mmHg 63%
    07:00 -4°C° 0 mm 4 m/s 741 mmHg 60%
    08:00 -3°C° 0 mm 4 m/s 741 mmHg 52%
    09:00 -2°C° 0 mm 4 m/s 741 mmHg 43%
    10:00 -1°C° 0 mm 4 m/s 741 mmHg 35%
    11:00 +1°C° 0 mm 4 m/s 740 mmHg 32%
    12:00 +3°C° 0 mm 4 m/s 740 mmHg 29%
    13:00 +4°C° 0 mm 3 m/s 739 mmHg 26%
    14:00 +5°C° 0 mm 3 m/s 739 mmHg 26%
    15:00 +5°C° 0 mm 3 m/s 739 mmHg 27%
    16:00 +7°C° 0 mm 3 m/s 738 mmHg 27%
    17:00 +5°C° 0 mm 2 m/s 738 mmHg 33%
    18:00 +4°C° 0 mm 2 m/s 738 mmHg 38%
    19:00 +4°C° 0 mm 1 m/s 738 mmHg 43%
    20:00 +3°C° 0 mm 1 m/s 738 mmHg 47%
    21:00 +2°C° 0 mm 1 m/s 738 mmHg 50%
    22:00 +2°C° 0 mm 1 m/s 739 mmHg 53%
    23:00 +2°C° 0 mm 1 m/s 739 mmHg 58%

    Demain, 31 Mars, Mardi

    Heure Température Précipitation Vent Pression Humidité
    00:00 +2°C° 0 mm 1 m/s 739 mmHg 63%
    01:00 +1°C° 0 mm 1 m/s 739 mmHg 68%
    02:00 +1°C° 0 mm 1 m/s 739 mmHg 73%
    03:00 -1°C° 0 mm 2 m/s 739 mmHg 79%
    04:00 -1°C° 0 mm 2 m/s 739 mmHg 85%
    05:00 -1°C° 0 mm 2 m/s 739 mmHg 83%
    06:00 -1°C° 0 mm 3 m/s 740 mmHg 81%
    07:00 -2°C° 0 mm 4 m/s 740 mmHg 78%
    08:00 0°C° 0 mm 4 m/s 740 mmHg 66%
    09:00 +1°C° 0 mm 4 m/s 741 mmHg 54%
    10:00 +3°C° 0 mm 4 m/s 741 mmHg 42%
    11:00 +4°C° 0 mm 4 m/s 741 mmHg 39%
    12:00 +5°C° 0 mm 4 m/s 741 mmHg 36%
    13:00 +5°C° 0 mm 4 m/s 741 mmHg 33%
    14:00 +5°C° 0 mm 4 m/s 740 mmHg 33%
    15:00 +5°C° 0 mm 4 m/s 740 mmHg 34%
    16:00 +6°C° 0 mm 4 m/s 740 mmHg 34%
    17:00 +4°C° 0 mm 3 m/s 740 mmHg 38%
    18:00 +3°C° 0 mm 3 m/s 740 mmHg 43%
    19:00 +1°C° 0 mm 3 m/s 740 mmHg 47%
    20:00 +1°C° 0 mm 2 m/s 740 mmHg 49%
    21:00 +1°C° 0 mm 2 m/s 740 mmHg 50%
    22:00 -1°C° 0 mm 2 m/s 740 mmHg 52%
    23:00 -2°C° 0 mm 2 m/s 740 mmHg 53%

    Après-demain, 1 Avril, Mercredi

    Heure Température Précipitation Vent Pression Humidité
    00:00 -2°C° 0 mm 2 m/s 739 mmHg 54%
    01:00 -2°C° 0 mm 2 m/s 739 mmHg 56%
    02:00 -3°C° 0 mm 2 m/s 739 mmHg 56%
    03:00 -3°C° 0 mm 2 m/s 738 mmHg 57%
    04:00 -1°C° 0 mm 1 m/s 738 mmHg 57%
    05:00 -1°C° 0 mm 1 m/s 738 mmHg 55%
    06:00 -1°C° 0 mm 1 m/s 738 mmHg 54%
    07:00 0°C° 0 mm 1 m/s 738 mmHg 52%
    08:00 +2°C° 0 mm 1 m/s 737 mmHg 46%
    09:00 +4°C° 0 mm 1 m/s 737 mmHg 40%
    10:00 +6°C° 0 mm 1 m/s 737 mmHg 34%
    11:00 +7°C° 0 mm 1 m/s 737 mmHg 32%
    12:00 +9°C° 0 mm 1 m/s 736 mmHg 30%
    13:00 +10°C° 0 mm 1 m/s 736 mmHg 28%
    14:00 +10°C° 0 mm 1 m/s 735 mmHg 28%
    15:00 +10°C° 0 mm 1 m/s 735 mmHg 29%
    16:00 +10°C° 0 mm 1 m/s 734 mmHg 29%
    17:00 +9°C° 0 mm 1 m/s 734 mmHg 34%
    18:00 +7°C° 0 mm 1 m/s 734 mmHg 39%
    19:00 +4°C° 0 mm 0 m/s 733 mmHg 44%
    20:00 +3°C° 0 mm 0 m/s 733 mmHg 46%
    21:00 +3°C° 0 mm 0 m/s 733 mmHg 48%
    22:00 +2°C° 0 mm 0 m/s 733 mmHg 50%
    23:00 +2°C° 0 mm 0 m/s 733 mmHg 52%

    2 Avril, Jeudi

    Heure Température Précipitation Vent Pression Humidité
    00:00 +1°C° 0 mm 0 m/s 733 mmHg 53%
    01:00 +1°C° 0 mm 0 m/s 733 mmHg 55%
    02:00 +1°C° 0 mm 0 m/s 733 mmHg 57%
    03:00 0°C° 0 mm 0 m/s 733 mmHg 59%
    04:00 0°C° 0 mm 0 m/s 732 mmHg 61%
    05:00 0°C° 0 mm 0 m/s 732 mmHg 63%
    06:00 +1°C° 0 mm 0 m/s 732 mmHg 64%
    07:00 +1°C° 0 mm 0 m/s 732 mmHg 66%
    08:00 +3°C° 0 mm 0 m/s 732 mmHg 60%
    09:00 +5°C° 0 mm 0 m/s 732 mmHg 55%
    10:00 +7°C° 0 mm 0 m/s 732 mmHg 49%
    11:00 +9°C° 0 mm 1 m/s 732 mmHg 47%
    12:00 +10°C° 0 mm 1 m/s 731 mmHg 44%
    13:00 +11°C° 0 mm 1 m/s 731 mmHg 42%
    14:00 +11°C° 0 mm 1 m/s 730 mmHg 42%
    15:00 +10°C° 0 mm 2 m/s 730 mmHg 42%
    16:00 +12°C° 0 mm 2 m/s 729 mmHg 42%
    17:00 +9°C° 0 mm 2 m/s 729 mmHg 48%
    18:00 +8°C° 0 mm 2 m/s 729 mmHg 53%
    19:00 +7°C° 0 mm 1 m/s 729 mmHg 59%
    20:00 +6°C° 0 mm 2 m/s 729 mmHg 62%
    21:00 +5°C° 0 mm 2 m/s 730 mmHg 65%
    22:00 +4°C° 0 mm 2 m/s 730 mmHg 68%
    23:00 +4°C° 0 mm 2 m/s 730 mmHg 71%

    3 Avril, Vendredi

    Heure Température Précipitation Vent Pression Humidité
    00:00 +3°C° 0 mm 2 m/s 730 mmHg 73%
    01:00 +4°C° 0 mm 1 m/s 730 mmHg 76%
    02:00 +2°C° 0 mm 2 m/s 731 mmHg 78%
    03:00 +2°C° 0 mm 2 m/s 731 mmHg 81%
    04:00 +2°C° 0 mm 2 m/s 731 mmHg 83%
    05:00 +2°C° 0 mm 2 m/s 731 mmHg 83%
    06:00 +2°C° 0 mm 2 m/s 732 mmHg 82%
    07:00 +2°C° 0 mm 3 m/s 732 mmHg 81%
    08:00 +4°C° 0 mm 2 m/s 733 mmHg 79%
    09:00 +4°C° 0 mm 2 m/s 733 mmHg 76%
    10:00 +5°C° 0 mm 2 m/s 733 mmHg 74%
    11:00 +6°C° 0 mm 2 m/s 734 mmHg 70%
    12:00 +7°C° 0 mm 2 m/s 734 mmHg 66%
    13:00 +8°C° 0 mm 2 m/s 734 mmHg 62%
    14:00 +9°C° 0 mm 2 m/s 735 mmHg 57%
    15:00 +10°C° 0 mm 2 m/s 735 mmHg 51%
    16:00 +10°C° 0 mm 2 m/s 735 mmHg 46%
    17:00 +9°C° 0 mm 2 m/s 735 mmHg 48%
    18:00 +7°C° 0 mm 2 m/s 736 mmHg 51%
    19:00 +6°C° 0 mm 2 m/s 736 mmHg 53%
    20:00 +5°C° 0 mm 2 m/s 737 mmHg 56%
    21:00 +5°C° 0 mm 1 m/s 737 mmHg 59%
    22:00 +5°C° 0 mm 1 m/s 738 mmHg 61%
    23:00 +3°C° 0 mm 2 m/s 738 mmHg 64%

    4 Avril, Samedi

    Heure Température Précipitation Vent Pression Humidité
    00:00 +2°C° 0 mm 2 m/s 739 mmHg 66%
    01:00 +2°C° 0 mm 2 m/s 739 mmHg 68%
    02:00 +2°C° 0 mm 2 m/s 739 mmHg 70%
    03:00 +1°C° 0 mm 2 m/s 739 mmHg 71%
    04:00 +1°C° 0 mm 2 m/s 739 mmHg 72%
    05:00 +1°C° 0 mm 2 m/s 739 mmHg 71%
    06:00 +1°C° 0 mm 2 m/s 740 mmHg 69%
    07:00 +1°C° 0 mm 2 m/s 740 mmHg 68%
    08:00 +2°C° 0 mm 3 m/s 740 mmHg 62%
    09:00 +4°C° 0 mm 3 m/s 740 mmHg 55%
    10:00 +7°C° 0 mm 3 m/s 740 mmHg 49%
    11:00 +9°C° 0 mm 3 m/s 739 mmHg 46%
    12:00 +10°C° 0 mm 3 m/s 739 mmHg 43%
    13:00 +11°C° 0 mm 4 m/s 739 mmHg 40%
    14:00 +12°C° 0 mm 4 m/s 739 mmHg 40%
    15:00 +12°C° 0 mm 4 m/s 738 mmHg 41%
    16:00 +13°C° 0 mm 3 m/s 738 mmHg 41%
    17:00 +11°C° 0 mm 3 m/s 738 mmHg 47%
    18:00 +10°C° 0 mm 3 m/s 738 mmHg 53%
    19:00 +8°C° 0 mm 3 m/s 738 mmHg 59%
    20:00 +8°C° 0 mm 3 m/s 738 mmHg 61%
    21:00 +7°C° 0 mm 3 m/s 738 mmHg 62%
    22:00 +5°C° 0 mm 3 m/s 738 mmHg 64%
    23:00 +5°C° 0 mm 3 m/s 739 mmHg 66%
    Voir plus